weather.gov     
National Weather Service

Regional Weather Roundup
NWS Homepage
This page is being discontinued on March 12, 2014.
The same data is available at this site. Please update your bookmarks.
Thank you, and we apologize for the inconvenience.
Please send an email to SR-SRH.Webmaster@noaa.gov with any concerns.


Current Version
Previous Version:    01  02  03  04  05  06  07  08  09  10  11  12  13  14  15  16  17  18  19  20  21  22  23  24  25  26  27  28  29  30  
   31  32  33  34  35  36  37  38  39  40  41  42  43  44  45  46  47  48  49  50  51  52  53  54  55  56  57  58  59  60  
[Printable]
446
ASUS44 KFWD 260615
RWRTX
NORTH TEXAS HOURLY WEATHER ROUNDUP
NATIONAL WEATHER SERVICE FORT WORTH TX
1200 AM CST WED NOV 26 2014

NOTE: "FAIR" INDICATES FEW OR NO CLOUDS BELOW 12,000 FEET WITH NO
SIGNIFICANT WEATHER AND/OR OBSTRUCTIONS TO VISIBILITY.

TXZ118-119-260700-
DALLAS/FORT WORTH METROPLEX

CITY           SKY/WX    TMP DP  RH WIND       PRES   REMARKS
DFW AIRPORT    PTCLDY    41  30  65 S9        30.09F WCI  35
6HR MIN TEMP:  41; 6HR MAX TEMP:  56;

DALLAS LOVE    PTCLDY    49  29  46 S5        30.10F
6HR MIN TEMP:  45; 6HR MAX TEMP:  57;

FTW MEACHAM    CLEAR     45  29  53 S7        30.09F
6HR MIN TEMP:  43; 6HR MAX TEMP:  56;

DAL-EXECUTIVE  CLEAR     49  27  42 VRB5      30.10F
6HR MIN TEMP:  47; 6HR MAX TEMP:  53;

FTW-ALLIANCE   PTCLDY    44  30  57 S7        30.08F
6HR MIN TEMP:  41; 6HR MAX TEMP:  51;

FTW-SPINKS     CLEAR     42  30  62 SW6       30.13F WCI  38
6HR MIN TEMP:  35; 6HR MAX TEMP:  55;

ARLINGTON      CLEAR     45  28  51 S6        30.11F
6HR MIN TEMP:  38; 6HR MAX TEMP:  57;

GRAND PRAIRIE  CLEAR     44  32  61 S5        30.12F
6HR MIN TEMP:  44; 6HR MAX TEMP:  58;

ADDISON        CLEAR     46  33  60 S5        30.11F
6HR MIN TEMP:  44; 6HR MAX TEMP:  57;

MESQUITE       CLEAR     40  29  64 S6        30.12F WCI  36
6HR MIN TEMP:  40; 6HR MAX TEMP:  56;

LANCASTER      CLEAR     40  27  61 S3        30.12F
6HR MIN TEMP:  38; 6HR MAX TEMP:  56;

$$

TXZ091>094-102>105-117-120-121-131>134-260700-
NORTH CENTRAL TEXAS

CITY           SKY/WX    TMP DP  RH WIND       PRES   REMARKS
SHRMAN/DENISON PTCLDY    47  32  57 S10       30.08F
6HR MIN TEMP:  46; 6HR MAX TEMP:  50;

GAINESVILLE    PTCLDY    40  31  69 SE5       30.09F WCI  36
6HR MIN TEMP:  40; 6HR MAX TEMP:  51;

BOWIE          CLEAR     42  32  68 S6        30.05F WCI  38
6HR MIN TEMP:  39; 6HR MAX TEMP:  47;

BRIDGEPORT     CLEAR     48  31  52 S10       30.09F
6HR MIN TEMP:  36; 6HR MAX TEMP:  51;

DECATUR        CLEAR     47  27  45 S13       30.07F
6HR MIN TEMP:  47; 6HR MAX TEMP:  54;

DENTON         CLEAR     42  30  62 S3        30.08F
6HR MIN TEMP:  38; 6HR MAX TEMP:  54;

MCKINNEY       CLEAR     37  32  82 S7        30.10F WCI  32
6HR MIN TEMP:  37; 6HR MAX TEMP:  54;

GREENVILLE     CLEAR     37  32  81 S3        30.11F
ROCKWALL       CLEAR     46  29  53 S8        30.10F
6HR MIN TEMP:  46; 6HR MAX TEMP:  55;

TERRELL        CLEAR     43  31  62 CALM      30.13F
6HR MIN TEMP:  43; 6HR MAX TEMP:  57;

WAXAHACHIE     CLEAR     43  30  61 S6        30.13F WCI  39
6HR MIN TEMP:  42; 6HR MAX TEMP:  55;

CLEBURNE       CLEAR     41  32  70 S5        30.14F WCI  38
GRANBURY       CLEAR     46  30  54 CALM      30.13F
6HR MIN TEMP:  42; 6HR MAX TEMP:  56;

$$

TXZ083>090-098>101-113>116-127>130-139>142-154-155-260700-
WESTERN NORTH TEXAS

CITY           SKY/WX    TMP DP  RH WIND       PRES   REMARKS
WICHITA FALLS  CLEAR     46  28  49 S15       30.00F WCI  40
6HR MIN TEMP:  42; 6HR MAX TEMP:  47;

WF-KICKAPOO    CLEAR     41  30  66 S9        30.02F WCI  35
6HR MIN TEMP:  40; 6HR MAX TEMP:  48;

VERNON         CLEAR     43  27  52 SW9       29.99F WCI  37
ABILENE        CLEAR     47  22  37 SW18      30.08F WCI  40
6HR MIN TEMP:  44; 6HR MAX TEMP:  53;

ABILENE-DYESS  CLEAR     50  20  30 SW18      30.07F
6HR MIN TEMP:  42; 6HR MAX TEMP:  50;

BRECKENRIDGE   CLEAR     48  24  39 S10       30.07F
6HR MIN TEMP:  48; 6HR MAX TEMP:  54;

GRAHAM         CLEAR     46  29  52 S6        30.04F
6HR MIN TEMP:  42; 6HR MAX TEMP:  51;

MINERAL WELLS  CLEAR     39  30  70 S6        30.08F WCI  35
6HR MIN TEMP:  38; 6HR MAX TEMP:  54;

STEPHENVILLE   CLEAR     41  29  61 CALM      30.14F
6HR MIN TEMP:  41; 6HR MAX TEMP:  54;

COMANCHE       CLEAR     47  28  48 SW9       30.13F
6HR MIN TEMP:  45; 6HR MAX TEMP:  54;

BROWNWOOD      CLEAR     37  32  81 SE3       30.15S
COLEMAN        CLEAR     46  26  45 SW12      30.13F
6HR MIN TEMP:  45; 6HR MAX TEMP:  54;

BRADY          CLEAR     41  23  48 S7        30.15F WCI  36
$$

TXZ143>147-156>162-174-175-260700-
CENTRAL TEXAS

CITY           SKY/WX    TMP DP  RH WIND       PRES   REMARKS
WACO           CLEAR     41  33  73 SW9       30.16F WCI  35
6HR MIN TEMP:  36; 6HR MAX TEMP:  52;

WACO-MCGREGOR  CLEAR     41  27  56 SW6       30.17F WCI  37
6HR MIN TEMP:  41; 6HR MAX TEMP:  54;

HILLSBORO      CLEAR     44  29  57 S6        30.14F
6HR MIN TEMP:  41; 6HR MAX TEMP:  54;

CORSICANA      CLEAR     44  29  55 S6        30.16F
6HR MIN TEMP:  44; 6HR MAX TEMP:  58;

MEXIA          CLEAR     42  31  64 S6        30.17S WCI  39
6HR MIN TEMP:  40; 6HR MAX TEMP:  56;

HEARNE         CLEAR     41  35  79 CALM      30.20F
6HR MIN TEMP:  40; 6HR MAX TEMP:  53;

CAMERON        CLEAR     44  34  68 S9        30.18F WCI  39
6HR MIN TEMP:  43; 6HR MAX TEMP:  59;

TEMPLE         CLEAR     41  28  60 S6        30.16F WCI  37
6HR MIN TEMP:  39; 6HR MAX TEMP:  57;

KILLEEN        CLEAR     52  25  35 SW5       30.17F HAZE
6HR MIN TEMP:  41; 6HR MAX TEMP:  55;

KILLEEN-SKYLRK CLEAR     39  27  60 S6        30.16F WCI  35
6HR MIN TEMP:  39; 6HR MAX TEMP:  55;

FORT HOOD      CLEAR     44  32  62 CALM      30.16F
6HR MIN TEMP:  42; 6HR MAX TEMP:  61;

GATESVILLE     CLEAR     39  32  75 CALM      30.19F
HAMILTON       CLEAR     40  29  66 SE6       30.16F WCI  35
6HR MIN TEMP:  39; 6HR MAX TEMP:  51;

LAMPASAS       CLEAR     42  31  63 CALM      30.16F
6HR MIN TEMP:  40; 6HR MAX TEMP:  55;

$$

TXZ095>097-106>112-122>126-135>138-148>153-164>167-260700-
EAST TEXAS

CITY           SKY/WX    TMP DP  RH WIND       PRES   REMARKS
PARIS          MOCLDY    43  28  56 SE7       30.11F WCI  39
6HR MIN TEMP:  43; 6HR MAX TEMP:  52;

SULPHUR SPRNGS PTCLDY    44  30  59 S7        30.14F WCI  40
6HR MIN TEMP:  42; 6HR MAX TEMP:  55;

MOUNT PLEASANT MOCLDY    37  32  81 SE6       30.15F WCI  33
6HR MIN TEMP:  37; 6HR MAX TEMP:  57;

MINEOLA        PTCLDY    48  30  49 S7        30.15F
TYLER          PTCLDY    44  34  67 S8        30.15F WCI  39
6HR MIN TEMP:  43; 6HR MAX TEMP:  57;

LONGVIEW       CLOUDY    46  33  60 S6        30.15F
6HR MIN TEMP:  42; 6HR MAX TEMP:  51;

MARSHALL       CLOUDY    41  38  91 CALM      30.17F
6HR MIN TEMP:  38; 6HR MAX TEMP:  48;

ATHENS         CLEAR     36  34  93 CALM      30.15F
PALESTINE      CLEAR     39  36  89 CALM      30.18F
JACKSONVILLE   PTCLDY    46  32  57 S5        30.18F
HENDERSON      CLOUDY    40  36  86 CALM      30.17F
6HR MIN TEMP:  38; 6HR MAX TEMP:  49;

NACOGDOCHES    PTCLDY    37  34  87 CALM      30.18F
6HR MIN TEMP:  37; 6HR MAX TEMP:  46;

LUFKIN         CLEAR     45  35  68 CALM      30.19F
6HR MIN TEMP:  42; 6HR MAX TEMP:  50;

$$

SUPPLEMENTAL OBSERVATIONS (CENTRAL)

CITY           SKY/WX    TMP DP  RH WIND       PRES   REMARKS
LAKE TEXOMA      N/A     48  32  53 S3          N/A
CADDO GRASSLND   N/A     39  32  75 S5          N/A  WCI  36
PAT MAYSE LAKE   N/A     48  28  46 SE10        N/A
GREENVILLE       N/A     43  28  56 S5          N/A
CEDAR HILL       N/A     50  28  43 S6          N/A
PALESTINE        N/A     45  28  53 CALM        N/A
LAKE LIMESTONE   N/A     41  32  70 SE1         N/A
MCGREGOR         N/A     43  32  65 SW3         N/A
TEMPLE           N/A     46  28  49 S2          N/A




U.S. Dept. of Commerce
NOAA National Weather Service
1325 East West Highway
Silver Spring, MD 20910
E-mail: w-nws.webmaster@noaa.gov
Page last modified: May 16, 2007
NATIONAL WEATHER SERVICE: for Safety, for Work, for Fun - FOR LIFE